Location: Unspecified
(40.7945°N, 0.0000°E)
Time: 16:16:12
(UTC+00:00)

METEOR M2 - Pass Details

Date: 06 August 2020
Orbit: 819 x 827 km, 98.5° (Epoch: 23 September)

Event Time Altitude Azimuth Distance (km) Brightness Sun altitude
Rises 19:58:30 0° 184° (S) 3,348 ? -9.1°
Reaches altitude 10° 20:00:58 10° 191° (S) 2,419 ? -9.5°
Maximum altitude 20:06:01 42° 262° (W) 1,165 ? -10.3°
Drops below altitude 10° 20:11:07 10° 332° (NNW) 2,429 ? -11.1°
Sets 20:13:36 0° 340° (NNW) 3,365 ? -11.5°
